Aérodrome :
LOGIN :

S'inscrire | Disclaimer

   EN    FR    IT 

 










Légende :    VFR   VFR Marginal   IFR   IFR Intensif   IFR Très Intensif
Visi : 
Plafond : 
>= 8 km
>= 3000ft
5 à 8 km
1000 à 3000 ft
1500m à 5 km
500 à 1000 ft
800 à 1500m
200 à 500 ft
< 800m
< 200 ft
Symboles :   Orages  Brouillard  Fortes neiges  Fortes précipitations  Vent > 20 kt
SIGMETs :   Divers  Orages  Givrage  Turbulence  Onde Orograph.  Cendres Volcan.







- Altitude de l'aérodrome : 308 ft


ESCF - Malmen AB

DERNIER METAR :
  • 260220Z AUTO 22014KT 9999 -RA SCT021/// BKN060/// OVC072/// 09/07 Q1000

METARs EXPIRÉS :
  • 260150Z AUTO 22010KT 9999 OVC023/// 10/07 Q1000
  • 260120Z AUTO 22011KT 9999 BKN023/// OVC052/// 10/07 Q1001
  • 260050Z AUTO 22011KT 9999 BKN025/// OVC039/// 10/06 Q1002
  • 260020Z AUTO 22011KT 9999 FEW027/// BKN035/// OVC046/// 10/06 Q1002
  • 252350Z AUTO 21007KT 9999 FEW032/// BKN045/// 10/06 Q1003

Prévision TAF périmée.
Pas de NOTAMs connus pour ce terrain.



MET'MAP, la Météo Aéronautique d'un coup d'oeil ! - Copyright ORBIFLY Décembre 2007 - Disclaimer

ORBIFLY MET'MAP TEAM :

Programmation & Développement : Alexandra Zaïnal
Conception & Développement : Baudouin d'Aumeries
Co-Programmation & Développement : Marc-Olivier Méhu
Soutien technique & logistique : Manuel Goepfert

Contact : metmap@orbifly.com




SOURCES & CREDITS :

   NOAA